RH
44 41 40 49 56 56 52 46 29 24 19 18 19 19 17 15 15 7 4 4 7 13 25 56 90 91 76 59 19 21 92 100 100 100 100 100 82 100 100 100 100 100 100
39 45 40 33 37 42 46 42 34 23 21 17 17 18 27 20 14 6 3 4 5 7 21 74 100 100 98 96 21 24 90 100 100 100 100 100 93 100 100 100 100 100 100
23 22 32 38 32 25 27 27 29 28 23 19 19 21 44 29 16 8 5 4 5 7 22 71 93 95 100 70 19 41 100 100 100 100 100 100 95 100 100 100 100 100 94
26 20 20 28 33 32 25 22 20 21 22 21 22 30 65 40 18 14 12 13 13 17 29 82 86 97 100 55 31 98 100 100 100 100 100 100 100 100 100 100 92 86 88
34 27 19 19 22 21 20 21 22 20 18 22 24 51 81 63 52 52 45 42 66 89 100 100 100 100 67 52 98 100 100 100 100 100 100 100 100 100 99 98 92 91 87
37 34 28 20 17 19 20 20 21 21 18 22 26 46 86 69 95 100 100 100 100 100 100 100 95 100 100 100 100 100 100 100 100 100 100 100 100 94 80 63 65 70 78
38 39 32 29 23 18 19 20 19 19 20 21 26 46 93 93 100 100 100 100 100 100 100 100 100 100 100 100 100 100 100 100 100 100 100 100 100 100 60 62 64 65 70
37 39 39 34 33 22 23 22 19 16 26 29 30 36 99 100 100 100 100 100 100 100 100 100 100 100 100 100 100 100 100 100 100 100 100 100 100 88 75 72 79 70 84
45 43 37 39 35 33 27 22 20 19 40 41 37 48 100 100 100 100 100 100 100 100 100 100 100 100 100 100 100 100 100 97 100 100 100 98 90 94 100 95 90 82 96
54 55 49 44 45 38 31 28 24 23 54 51 68 100 100 100 100 100 100 100 100 100 100 100 100 98 100 100 100 100 100 99 100 99 84 81 86 81 76 78 69 78 92
51 51 51 52 54 50 43 32 29 26 47 78 99 100 100 100 100 100 100 100 100 100 100 100 100 100 100 100 97 97 97 88 86 76 76 90 100 91 93 89 76 84 80
50 54 56 56 57 61 50 40 33 28 32 65 100 100 100 100 100 100 100 100 100 100 100 100 100 100 100 100 100 100 100 100 100 100 100 96 91 97 100 96 85 76 83
47 50 54 55 55 63 57 49 42 34 27 55 96 100 100 100 100 100 100 100 100 100 100 100 100 100 100 100 100 100 100 100 99 95 99 100 100 100 96 93 90 88 76
39 45 49 53 50 53 59 61 51 41 33 31 65 100 100 100 100 100 100 100 100 100 100 100 100 100 100 100 100 100 100 100 100 100 100 100 100 100 93 74 67 61 55
32 39 43 51 55 54 70 66 57 50 41 34 40 66 94 100 100 100 100 100 100 100 100 100 100 100 100 96 98 100 100 97 95 98 94 97 92 90 85 88 92 80 58
29 36 41 47 48 52 54 57 59 57 53 42 32 41 60 80 100 100 100 100 100 100 100 100 100 100 89 95 92 90 82 88 90 92 92 90 88 86 88 88 93 100 83
21 26 31 36 39 42 46 48 53 55 55 53 43 35 33 48 72 98 100 100 100 100 100 100 100 100 100 100 100 98 100 100 100 100 100 100 100 100 100 100 100 100 100
18 24 28 31 36 38 43 48 50 54 54 52 49 45 36 31 38 55 84 98 100 100 100 100 100 100 100 100 100 100 100 100 100 100 100 100 100 100 100 100 100 100 100
17 24 27 28 41 48 49 50 48 52 56 71 67 61 50 41 32 33 44 68 86 94 99 100 100 100 100 100 100 100 100 100 100 100 100 100 100 100 100 100 100 100 100
15 21 26 27 34 35 50 52 54 57 54 63 73 70 75 72 53 45 44 48 51 63 71 77 89 98 100 100 100 100 100 100 100 100 100 100 100 100 100 100 100 99 99
15 18 22 28 38 36 40 47 44 51 57 66 67 73 77 79 89 77 61 56 48 54 54 53 58 69 73 81 88 92 95 97 100 100 100 100 100 100 100 100 100 100 100
17 15 19 27 42 43 34 31 39 52 56 62 73 74 80 85 77 72 74 64 61 53 49 47 46 46 48 47 53 61 65 64 63 64 65 66 66 64 60 54 45 41 40
15 14 22 26 30 33 35 34 36 47 58 70 72 76 88 86 82 82 80 83 74 62 56 53 46 50 50 50 49 39 37 34 39 39 35 36 36 34 37 36 36 37 34
16 16 15 21 32 37 37 31 33 40 52 63 69 74 79 83 86 88 78 76 70 60 52 55 55 59 56 52 52 51 44 40 43 46 41 43 41 36 31 26 25 25 25
17 15 17 22 24 29 32 36 31 36 44 45 47 57 71 66 70 69 76 69 64 58 58 56 58 62 68 72 67 67 60 44 40 38 36 31 27 26 24 23 22 21 21
12 14 18 20 22 24 24 30 33 34 31 35 33 28 35 43 46 45 53 64 59 65 60 57 60 64 73 79 77 72 49 36 32 28 27 26 24 22 21 20 18 18 18
Wind_Speed
83 82 82 82 80 78 76 74 73 74 68 65 64 59 61 72 79 81 75 75 80 78 84 84 82 75 67 67 70 67 63 65 65 62 57 58 62 58 54 53 59 60 57
88 89 86 85 83 82 82 79 76 72 67 62 63 57 63 68 74 74 59 62 66 70 76 81 85 78 66 63 66 66 69 64 61 58 54 58 61 55 52 49 52 57 59
83 85 87 89 86 84 83 80 77 72 63 63 59 53 57 56 60 59 54 53 55 59 68 75 80 77 66 63 64 68 65 59 57 58 55 58 60 54 57 58 59 57 62
81 82 80 81 83 85 85 80 77 71 65 64 56 50 49 41 43 43 39 40 41 40 49 68 70 65 63 65 64 63 60 57 58 60 59 61 64 66 65 65 66 65 70
83 83 81 80 75 74 77 77 75 72 69 66 58 52 48 36 24 23 19 19 24 30 42 51 54 59 65 64 62 63 63 64 64 63 63 66 71 74 71 72 72 72 73
87 84 81 78 76 72 72 69 70 70 68 66 60 56 51 43 35 28 22 23 24 29 36 44 52 55 56 64 67 66 70 69 66 65 65 69 76 78 78 75 71 71 74
92 89 86 80 77 73 69 63 62 64 65 65 61 59 55 47 45 44 43 42 39 43 46 49 53 60 64 68 72 71 70 68 67 66 70 75 77 81 77 75 69 71 72
96 94 91 86 81 76 70 67 61 61 63 61 62 64 65 60 56 55 56 54 53 54 57 59 59 61 63 67 66 58 58 61 60 64 69 76 80 76 75 70 72 68 71
100 96 93 90 86 83 74 68 64 63 65 67 66 70 71 70 67 64 64 61 63 65 65 66 61 56 62 64 68 71 70 70 71 76 74 70 71 75 74 74 74 73 74
104 101 97 94 90 85 80 72 65 65 71 71 70 73 75 75 71 71 70 69 69 67 66 70 67 69 71 73 74 76 74 75 72 71 71 73 75 76 78 75 76 76 79
104 101 98 96 93 90 83 76 70 68 75 77 76 77 77 80 81 78 79 80 78 76 75 73 77 76 74 75 77 74 76 79 79 78 78 79 82 81 81 84 82 81 81
103 102 101 98 96 91 86 81 76 70 76 83 80 81 82 80 82 85 86 86 86 84 84 81 81 80 80 80 80 80 81 82 83 85 86 87 88 87 88 87 86 88 89
104 102 99 100 99 94 87 84 82 77 75 87 87 82 83 86 86 87 88 91 88 90 93 90 88 89 87 86 86 87 88 90 93 92 92 94 94 94 94 95 96 95 95
102 101 99 98 98 96 91 88 87 84 80 85 93 93 83 85 90 90 92 93 92 94 94 94 94 94 93 92 92 92 94 96 97 98 100 100 100 100 100 100 102 102 104
96 97 97 99 99 97 93 92 91 89 87 85 95 96 98 92 87 92 92 94 94 96 98 99 100 99 98 99 100 99 100 102 102 100 101 102 102 101 104 107 106 107 109
90 92 95 98 98 97 95 94 95 93 92 89 93 100 99 100 98 96 91 95 95 95 99 99 101 104 105 105 104 103 103 102 104 105 105 105 108 108 109 112 110 110 112
89 89 92 95 96 96 96 96 96 97 97 96 94 99 103 103 102 102 104 100 96 96 96 99 100 101 103 106 108 110 108 106 106 106 107 110 111 111 113 114 114 117 120
87 88 90 92 94 96 97 99 99 98 98 100 101 100 103 106 106 105 108 105 107 108 104 104 104 104 105 106 107 109 111 112 112 114 116 118 118 119 121 121 124 124 125
87 90 93 93 95 96 97 99 99 101 102 106 107 106 104 104 108 107 107 105 107 110 108 114 112 110 112 109 109 114 114 113 114 116 117 118 120 123 124 124 125 127 129
87 92 96 94 94 94 98 99 99 102 104 108 110 108 107 106 106 109 109 109 110 109 109 110 111 112 116 112 115 115 119 117 116 120 125 127 128 128 130 130 130 130 131
89 92 92 92 96 95 95 99 99 101 105 109 111 110 110 110 110 109 108 109 111 111 114 112 111 111 115 113 115 121 123 122 123 123 125 126 126 128 130 134 138 140 141
91 90 89 91 96 98 96 96 99 102 105 107 111 111 113 113 113 111 112 111 112 113 113 114 114 114 115 117 118 119 120 120 122 124 126 127 129 133 134 136 135 134 136
88 87 90 96 95 96 99 100 99 101 105 107 110 111 113 114 113 114 115 116 116 114 110 111 111 113 113 114 117 119 120 122 123 126 126 128 128 128 128 128 128 127 128
80 85 87 87 93 95 103 101 99 101 104 106 109 111 113 113 115 117 115 115 115 114 111 112 111 112 111 112 113 116 116 115 116 118 117 117 118 117 116 116 115 115 115
82 84 81 90 93 97 95 100 100 102 104 105 106 107 111 111 112 112 113 112 112 110 110 110 110 110 113 115 115 115 115 112 112 112 111 109 108 107 106 106 107 109 110
72 75 81 83 88 95 95 97 100 103 103 104 105 103 103 105 105 104 106 109 109 112 111 109 109 110 113 115 116 117 115 112 110 108 107 105 104 103 102 101 101 102 103
Wind_Direction
242 240 239 238 237 239 241 244 246 248 247 251 254 257 260 260 265 266 266 258 253 246 247 243 239 239 236 231 233 235 235 239 247 253 258 252 247 247 256 263 269 270 272
242 242 242 242 241 241 243 244 246 249 249 250 252 257 260 263 269 271 265 255 248 244 237 235 231 234 228 231 231 232 235 240 247 253 254 256 248 245 256 259 263 272 270
243 242 243 243 244 244 244 245 246 247 247 245 250 255 262 267 269 272 268 257 246 232 226 226 229 232 225 229 230 232 235 240 246 253 251 253 246 246 250 248 252 255 262
244 245 243 242 245 247 247 246 246 246 244 244 247 251 251 258 258 256 250 240 222 218 219 221 230 230 224 230 231 233 235 242 250 253 250 248 243 245 244 250 251 258 264
243 245 245 243 241 246 248 248 246 245 244 245 244 242 239 236 231 215 208 201 198 200 210 219 225 223 222 228 230 232 238 244 250 252 251 248 243 244 246 250 254 258 262
244 245 246 246 243 242 245 246 247 243 241 241 239 237 231 222 220 222 209 208 204 210 214 218 221 222 227 229 231 235 242 246 251 251 250 251 247 245 250 253 258 257 261
245 246 247 246 247 243 240 241 242 241 240 238 235 228 221 217 213 213 214 220 222 226 229 228 227 226 226 231 234 239 244 247 248 249 249 250 251 248 256 259 262 263 264
245 246 247 247 247 245 242 238 237 239 234 229 228 224 219 220 220 219 213 210 213 219 223 225 229 233 234 234 236 237 242 240 242 245 247 246 248 252 259 265 263 267 269
245 246 247 248 248 247 244 238 235 235 229 223 225 221 219 219 219 222 221 221 222 224 223 224 225 227 230 229 231 232 232 235 234 242 247 254 256 259 262 266 264 267 267
243 245 246 246 246 246 244 240 235 230 225 223 224 222 222 221 220 222 226 228 229 231 230 232 234 232 225 227 233 236 239 245 246 252 256 256 257 260 261 264 266 265 268
242 243 244 244 244 244 243 241 236 229 223 222 224 225 223 226 226 227 228 229 232 233 234 236 237 237 238 243 244 246 248 248 250 256 257 257 259 262 262 265 269 268 271
241 242 242 240 241 241 242 239 237 231 225 219 220 225 225 226 230 230 232 233 234 235 235 236 236 237 241 241 242 247 248 250 253 257 256 260 264 264 265 266 269 271 272
238 238 239 239 239 240 239 238 237 232 228 221 220 220 226 226 228 233 235 236 235 236 238 240 240 241 242 243 246 249 250 252 255 257 258 259 260 260 264 266 269 271 273
234 235 236 238 239 239 239 237 235 234 230 226 224 221 222 228 230 232 233 239 241 242 242 243 245 245 246 247 248 248 250 252 255 257 260 261 263 266 267 268 269 272 274
232 232 233 235 236 237 236 235 233 233 232 230 225 227 227 222 225 230 235 237 238 241 243 245 247 248 250 250 250 251 253 255 257 258 260 261 264 268 269 271 273 273 274
229 231 232 233 234 234 234 233 231 231 231 231 229 227 229 231 226 226 228 233 237 240 243 244 246 249 252 254 255 256 258 260 261 262 264 265 267 268 270 272 273 273 274
228 228 230 231 232 231 231 231 231 231 231 231 230 230 229 231 233 231 231 230 231 235 238 242 244 245 247 250 252 255 255 256 257 259 261 264 266 267 268 269 269 270 273
228 228 229 231 231 231 230 231 231 232 232 233 232 231 231 232 233 236 236 237 237 235 236 238 239 242 246 248 250 251 253 255 257 258 260 262 264 265 266 268 269 271 273
225 226 228 228 228 230 231 232 233 233 233 231 232 234 234 234 234 236 238 241 242 242 242 243 243 243 244 246 248 248 251 253 255 258 258 259 261 264 266 267 268 270 272
226 225 226 229 229 230 230 232 231 232 233 233 233 235 236 237 237 237 239 242 243 245 247 248 248 249 250 251 251 253 253 254 256 256 257 259 261 265 266 267 270 272 273
227 227 227 228 230 231 229 231 232 232 233 233 235 236 237 238 240 241 242 244 246 247 248 250 252 253 254 256 258 258 259 260 260 261 262 264 265 266 269 270 271 273 273
226 227 229 227 229 231 233 232 233 234 235 235 236 238 239 240 242 244 245 247 248 248 250 252 253 255 257 258 259 260 262 264 265 265 266 268 269 270 272 273 274 275 276
225 226 228 230 230 231 234 235 235 235 236 237 239 239 240 242 244 246 247 249 250 252 253 255 256 258 259 261 262 262 264 265 266 266 268 269 271 272 273 274 275 276 276
225 226 227 229 231 232 234 237 237 238 239 239 240 242 244 245 246 247 249 251 253 255 257 258 259 261 262 263 264 265 267 267 268 268 269 270 271 272 273 274 275 275 275
224 226 224 226 229 233 234 236 238 239 240 241 242 243 245 246 248 250 251 253 255 257 259 260 262 264 265 266 267 268 268 269 269 268 270 272 272 273 273 274 274 275 277
225 225 226 226 227 232 234 236 238 240 241 243 245 245 246 248 250 252 253 254 257 258 260 261 263 264 265 266 267 267 267 268 270 271 272 273 274 274 275 274 275 276 276